STARLINK-36866

Last updated on Tue Mar 24 2026 00:02:05 GMT+0000 (Coordinated Universal Time)

1 67895U 26035S 26082.53023404 .00205181 00000+0 13445-2 0 9995 2 67895 97.2858 15.6279 0002194 94.8351 265.3165 15.75175721 6029
UTC large
Height (km)
Speed (km/s)
/
Latitude / Longitude
Inclination (degrees)
Orbital Period (minutes)
Azimuth
Elevation
Range (km)
Doppler Factor

Next 0 passes for location: London (51.5072 / 0.1276)

Sorry there are no passes over London.